Location: Newark
(48.7875°N, 2.3928°E)
Time: 13:14:16
(UTC+00:00)

N. Korean satellite - Pass Details

Date: 21 October 2019
Orbit: 456 x 506 km, 97.2° (Epoch: 17 November)

Event Time Altitude Azimuth Distance (km) Brightness Sun altitude
Rises 18:08:23 0° 217° (SW) 2,468 10.7 -13.6°
Reaches altitude 10° 18:11:59 10° 258° (WSW) 1,608 10.6 -14.2°
Maximum altitude 18:12:47 11° 272° (W) 1,573 10.6 -14.3°
Drops below altitude 10° 18:13:35 10° 285° (WNW) 1,615 10.5 -14.4°
Sets 18:17:16 0° 326° (NNW) 2,510 10.7 -15.0°
